• In Deutschland
  • Länderverzeichnis
  • Für 7 Tage
  • Wassertemperatur
  • Satellitenkarten
  • Wetterkarte
  • Widgets
  • user-avatar
    Anmelden

    Stündliche Wetter Tschachansur

    Heute, 18 Januar, Donnerstag

    Zeit Temperatur Niederschläge Wind Luftdruck Luftfeuchtigkeit
    00:00 +9°C° 0 mm 2 m/S 720 mmHg 24%
    01:00 +9°C° 0 mm 2 m/S 720 mmHg 24%
    02:00 +9°C° 0 mm 2 m/S 720 mmHg 24%
    03:00 +9°C° 0 mm 2 m/S 720 mmHg 24%
    04:00 +8°C° 0 mm 2 m/S 720 mmHg 25%
    05:00 +8°C° 0 mm 3 m/S 720 mmHg 25%
    06:00 +8°C° 0 mm 3 m/S 720 mmHg 25%
    07:00 +7°C° 0 mm 3 m/S 720 mmHg 25%
    08:00 +9°C° 0 mm 3 m/S 721 mmHg 22%
    09:00 +12°C° 0 mm 4 m/S 721 mmHg 19%
    10:00 +14°C° 0 mm 4 m/S 721 mmHg 16%
    11:00 +15°C° 0 mm 4 m/S 720 mmHg 14%
    12:00 +18°C° 0 mm 3 m/S 720 mmHg 13%
    13:00 +19°C° 0 mm 3 m/S 719 mmHg 11%
    14:00 +20°C° 0 mm 3 m/S 719 mmHg 11%
    15:00 +20°C° 0 mm 2 m/S 718 mmHg 11%
    16:00 +20°C° 0 mm 2 m/S 718 mmHg 10%
    17:00 +18°C° 0 mm 2 m/S 718 mmHg 12%
    18:00 +16°C° 0 mm 2 m/S 718 mmHg 14%
    19:00 +15°C° 0 mm 1 m/S 718 mmHg 16%
    20:00 +14°C° 0 mm 2 m/S 718 mmHg 17%
    21:00 +14°C° 0 mm 2 m/S 718 mmHg 17%
    22:00 +13°C° 0 mm 2 m/S 718 mmHg 18%
    23:00 +13°C° 0 mm 2 m/S 719 mmHg 19%

    Morgen, 19 Januar, Freitag

    Zeit Temperatur Niederschläge Wind Luftdruck Luftfeuchtigkeit
    00:00 +12°C° 0 mm 2 m/S 719 mmHg 20%
    01:00 +12°C° 0 mm 1 m/S 719 mmHg 21%
    02:00 +11°C° 0 mm 1 m/S 719 mmHg 21%
    03:00 +10°C° 0 mm 1 m/S 719 mmHg 22%
    04:00 +10°C° 0 mm 1 m/S 719 mmHg 22%
    05:00 +10°C° 0 mm 1 m/S 719 mmHg 22%
    06:00 +9°C° 0 mm 1 m/S 720 mmHg 23%
    07:00 +9°C° 0 mm 1 m/S 720 mmHg 23%
    08:00 +11°C° 0 mm 1 m/S 721 mmHg 20%
    09:00 +14°C° 0 mm 1 m/S 722 mmHg 17%
    10:00 +18°C° 0 mm 1 m/S 723 mmHg 14%
    11:00 +19°C° 0 mm 1 m/S 722 mmHg 13%
    12:00 +18°C° 0 mm 0 m/S 722 mmHg 12%
    13:00 +19°C° 0 mm 0 m/S 722 mmHg 12%
    14:00 +19°C° 0 mm 0 m/S 722 mmHg 12%
    15:00 +22°C° 0 mm 1 m/S 721 mmHg 12%
    16:00 +22°C° 0 mm 1 m/S 721 mmHg 12%
    17:00 +20°C° 0 mm 1 m/S 722 mmHg 13%
    18:00 +18°C° 0 mm 1 m/S 722 mmHg 15%
    19:00 +15°C° 0 mm 1 m/S 722 mmHg 17%
    20:00 +15°C° 0 mm 1 m/S 722 mmHg 16%
    21:00 +15°C° 0 mm 2 m/S 722 mmHg 16%
    22:00 +15°C° 0 mm 2 m/S 722 mmHg 16%
    23:00 +14°C° 0 mm 3 m/S 722 mmHg 17%

    übermorgen, 20 Januar, Samstag

    Zeit Temperatur Niederschläge Wind Luftdruck Luftfeuchtigkeit
    00:00 +13°C° 0 mm 3 m/S 722 mmHg 17%
    01:00 +13°C° 0 mm 3 m/S 722 mmHg 18%
    02:00 +12°C° 0 mm 3 m/S 721 mmHg 19%
    03:00 +12°C° 0 mm 3 m/S 721 mmHg 20%
    04:00 +11°C° 0 mm 3 m/S 721 mmHg 21%
    05:00 +11°C° 0 mm 3 m/S 721 mmHg 22%
    06:00 +11°C° 0 mm 3 m/S 721 mmHg 23%
    07:00 +11°C° 0 mm 3 m/S 721 mmHg 24%
    08:00 +13°C° 0 mm 3 m/S 721 mmHg 23%
    09:00 +15°C° 0 mm 4 m/S 722 mmHg 22%
    10:00 +18°C° 0 mm 4 m/S 722 mmHg 21%
    11:00 +19°C° 0 mm 3 m/S 721 mmHg 20%
    12:00 +21°C° 0 mm 3 m/S 721 mmHg 19%
    13:00 +22°C° 0 mm 3 m/S 720 mmHg 18%
    14:00 +23°C° 0 mm 2 m/S 719 mmHg 18%
    15:00 +23°C° 0 mm 2 m/S 719 mmHg 18%
    16:00 +24°C° 0 mm 2 m/S 718 mmHg 18%
    17:00 +22°C° 0 mm 1 m/S 718 mmHg 21%
    18:00 +20°C° 0 mm 1 m/S 718 mmHg 24%
    19:00 +18°C° 0 mm 1 m/S 718 mmHg 27%
    20:00 +18°C° 0 mm 1 m/S 718 mmHg 26%
    21:00 +16°C° 0 mm 2 m/S 718 mmHg 26%
    22:00 +16°C° 0 mm 2 m/S 718 mmHg 26%
    23:00 +16°C° 0 mm 2 m/S 718 mmHg 26%

    21 Januar, Sonntag

    Zeit Temperatur Niederschläge Wind Luftdruck Luftfeuchtigkeit
    00:00 +15°C° 0 mm 2 m/S 718 mmHg 26%
    01:00 +14°C° 0 mm 3 m/S 717 mmHg 26%
    02:00 +14°C° 0 mm 3 m/S 717 mmHg 25%
    03:00 +13°C° 0 mm 3 m/S 717 mmHg 25%
    04:00 +13°C° 0 mm 3 m/S 716 mmHg 25%
    05:00 +13°C° 0 mm 3 m/S 716 mmHg 26%
    06:00 +12°C° 0 mm 3 m/S 716 mmHg 27%
    07:00 +12°C° 0 mm 4 m/S 716 mmHg 27%
    08:00 +14°C° 0 mm 4 m/S 717 mmHg 25%
    09:00 +17°C° 0 mm 4 m/S 717 mmHg 23%
    10:00 +19°C° 0 mm 4 m/S 717 mmHg 21%
    11:00 +20°C° 0 mm 4 m/S 716 mmHg 20%
    12:00 +21°C° 0 mm 4 m/S 716 mmHg 19%
    13:00 +23°C° 0 mm 4 m/S 715 mmHg 17%
    14:00 +24°C° 0 mm 3 m/S 714 mmHg 17%
    15:00 +24°C° 0 mm 3 m/S 714 mmHg 17%
    16:00 +24°C° 0 mm 2 m/S 714 mmHg 17%
    17:00 +22°C° 0 mm 3 m/S 714 mmHg 20%
    18:00 +21°C° 0 mm 5 m/S 714 mmHg 22%
    19:00 +19°C° 0 mm 6 m/S 714 mmHg 24%
    20:00 +17°C° 0,1 mm 7 m/S 714 mmHg 29%
    21:00 +15°C° 0,1 mm 8 m/S 715 mmHg 34%
    22:00 +13°C° 0,1 mm 9 m/S 715 mmHg 39%
    23:00 +12°C° 0,1 mm 8 m/S 715 mmHg 43%

    22 Januar, Montag

    Zeit Temperatur Niederschläge Wind Luftdruck Luftfeuchtigkeit
    00:00 +11°C° 0,1 mm 8 m/S 715 mmHg 46%
    01:00 +10°C° 0,1 mm 7 m/S 715 mmHg 50%
    02:00 +10°C° 0 mm 8 m/S 715 mmHg 52%
    03:00 +10°C° 0 mm 8 m/S 715 mmHg 53%
    04:00 +9°C° 0 mm 8 m/S 715 mmHg 55%
    05:00 +9°C° 0 mm 8 m/S 716 mmHg 55%
    06:00 +9°C° 0 mm 7 m/S 716 mmHg 54%
    07:00 +9°C° 0 mm 7 m/S 717 mmHg 54%
    08:00 +10°C° 0 mm 8 m/S 718 mmHg 50%
    09:00 +10°C° 0 mm 8 m/S 718 mmHg 47%
    10:00 +11°C° 0 mm 9 m/S 719 mmHg 44%
    11:00 +12°C° 0 mm 9 m/S 718 mmHg 41%
    12:00 +12°C° 0 mm 9 m/S 718 mmHg 39%
    13:00 +13°C° 0 mm 9 m/S 717 mmHg 36%
    14:00 +13°C° 0 mm 9 m/S 717 mmHg 33%
    15:00 +15°C° 0 mm 8 m/S 717 mmHg 31%
    16:00 +16°C° 0 mm 8 m/S 717 mmHg 28%
    17:00 +15°C° 0 mm 7 m/S 718 mmHg 29%
    18:00 +14°C° 0 mm 6 m/S 718 mmHg 29%
    19:00 +13°C° 0 mm 6 m/S 719 mmHg 30%
    20:00 +13°C° 0 mm 6 m/S 719 mmHg 30%
    21:00 +12°C° 0 mm 5 m/S 719 mmHg 31%
    22:00 +12°C° 0 mm 5 m/S 719 mmHg 32%
    23:00 +10°C° 0 mm 5 m/S 719 mmHg 33%

    23 Januar, Dienstag

    Zeit Temperatur Niederschläge Wind Luftdruck Luftfeuchtigkeit
    00:00 +9°C° 0 mm 5 m/S 719 mmHg 35%
    01:00 +10°C° 0 mm 4 m/S 719 mmHg 37%
    02:00 +10°C° 0 mm 4 m/S 719 mmHg 38%
    03:00 +8°C° 0 mm 4 m/S 718 mmHg 40%
    04:00 +8°C° 0 mm 4 m/S 718 mmHg 42%
    05:00 +8°C° 0 mm 3 m/S 719 mmHg 43%
    06:00 +8°C° 0 mm 3 m/S 719 mmHg 44%
    07:00 +7°C° 0 mm 2 m/S 719 mmHg 46%
    08:00 +9°C° 0 mm 2 m/S 720 mmHg 41%
    09:00 +12°C° 0 mm 2 m/S 720 mmHg 36%
    10:00 +13°C° 0 mm 2 m/S 721 mmHg 31%
    11:00 +15°C° 0 mm 2 m/S 720 mmHg 28%
    12:00 +16°C° 0 mm 2 m/S 719 mmHg 25%
    13:00 +18°C° 0 mm 1 m/S 719 mmHg 21%
    14:00 +18°C° 0 mm 1 m/S 718 mmHg 21%
    15:00 +19°C° 0 mm 1 m/S 718 mmHg 20%
    16:00 +19°C° 0 mm 1 m/S 718 mmHg 19%
    17:00 +18°C° 0 mm 1 m/S 718 mmHg 21%
    18:00 +15°C° 0 mm 1 m/S 718 mmHg 23%
    19:00 +14°C° 0 mm 1 m/S 718 mmHg 25%
    20:00 +14°C° 0 mm 1 m/S 718 mmHg 25%
    21:00 +14°C° 0 mm 1 m/S 718 mmHg 25%
    22:00 +14°C° 0 mm 1 m/S 718 mmHg 25%
    23:00 +13°C° 0 mm 2 m/S 718 mmHg 26%
    Mehr zeigen